#timestamp,LO_Frequency,Hit,StdDev 
1681812015.7,286047000.7,N
1681812035.5,286046999.4,N
1681812055.3,286046999.1,N
1681812075.2,286046996.8,N
1681812095.0,286046998.9,N
1681812095.9,286046998.9,N
1681812115.7,286046999.2,N
1681812135.6,286046999.6,N
1681812155.4,286046996.6,N
1681812175.3,286046996.6,N
1681812195.1,286046997.1,N
1681812196.0,286046997.1,N
1681812215.8,286046996.9,N
1681812235.7,286046996.6,N
1681812255.5,286046997.1,N
1681812275.3,286046997.7,N
1681812295.2,286046996.8,N
1681812315.0,286046997.4,N
1681812315.9,286046997.4,N
1681812335.8,286046997.0,N
1681812355.6,286046999.1,N
1681812375.4,286046998.9,N
1681812395.3,286046998.7,N
1681812415.1,286047000.7,N
1681812435.8,286047000.9,N
1681812455.7,286047000.0,N
1681812475.5,286047001.5,N
1681812495.4,286047001.7,N
1681812515.2,286047001.4,N
1681812535.0,286047002.5,N
1681812535.9,286047002.5,N
1681812555.8,286047001.1,N
1681812575.6,286047000.2,N
1681812595.4,286047000.2,N
1681812615.3,286047000.4,N
1681812635.1,286046999.3,N
1681812655.9,286046999.3,N
1681812675.7,286046997.0,N
1681812695.5,286046996.6,N
1681812715.4,286046999.5,N
1681812735.2,286046999.9,N
1681812755.0,286047000.6,N
1681812755.9,286047000.6,N
1681812775.8,286047002.8,N
1681812795.6,286047004.3,N
1681812815.5,286047001.0,N
1681812835.3,286047000.4,N
1681812855.1,286047000.0,N
1681812875.9,286047000.1,N
1681812895.7,286047000.9,N
1681812915.5,286046998.5,N
1681812935.4,286046999.9,N
1681812955.2,286047001.0,N
1681812975.1,286046998.6,N
1681812976.0,286046998.6,N
1681812995.8,286046997.2,N
1681813015.6,286046997.5,N
1681813035.5,286046997.2,N
1681813055.3,286046997.6,N
1681813075.1,286046997.1,N
1681813095.9,286046997.0,N
1681813115.7,286046998.9,N
1681813135.6,286046999.0,N
1681813155.4,286047000.8,N
1681813175.2,286046999.6,N
1681813195.1,286046999.4,N
1681813196.0,286046999.4,N
1681813215.8,286046996.6,N
1681813235.6,286046996.7,N
1681813255.5,286046997.9,N
1681813275.3,286046993.9,Y
1681813295.2,286046994.0,P
1681813315.0,286046994.6,N
1681813315.9,286046994.6,N
1681813335.7,286046994.5,N
1681813355.6,286046994.8,N
1681813375.4,286046992.1,Y
1681813395.3,286046997.2,P
1681813415.1,286046994.9,P
1681813416.0,286046994.9,P
1681813435.8,286046997.5,N
1681813455.7,286046997.9,N
1681813475.5,286046995.4,Y
1681813495.4,286046999.8,P
1681813515.2,286046999.8,N
1681813535.0,286047004.4,N
1681813535.9,286047004.4,N
1681813555.8,286047001.9,N
1681813575.6,286047001.8,N
1681813595.4,286047001.8,N
1681813615.3,286047001.4,N
1681813635.1,286047001.5,N
1681813655.8,286047003.4,N
1681813675.7,286047003.6,N
1681813695.5,286047004.1,N
1681813715.4,286047003.6,N
1681813735.2,286047003.2,N
1681813755.0,286047004.4,N
1681813755.9,286047004.4,N
1681813775.8,286047003.5,N
1681813795.6,286047003.3,N
1681813815.4,286047004.4,N
1681813835.3,286047002.0,N
1681813855.1,286047002.4,N
1681813875.9,286047000.2,N
1681813895.7,286047000.8,N
1681813915.5,286047002.8,N
1681813935.4,286046999.7,N
1681813955.2,286047002.0,N
1681813975.0,286047001.6,N
1681813976.0,286047001.6,N
1681813995.8,286047002.3,N
1681814015.6,286047000.1,N
1681814035.5,286047001.2,N
1681814055.3,286047002.7,N
1681814075.1,286047002.8,N
1681814095.9,286047000.0,N
1681814115.7,286047002.1,N
1681814135.6,286047002.8,N
1681814155.4,286047011.9,Y
1681814175.2,286046997.7,P
1681814195.1,286046993.7,N
1681814196.0,286046993.7,N
1681814215.8,286046995.8,N
1681814235.6,286046993.3,N
1681814255.5,286046994.4,N
1681814275.3,286046993.4,N
1681814295.2,286046995.2,N
1681814315.9,286046997.9,N
1681814335.7,286046997.5,N
1681814355.6,286046997.4,N
1681814375.4,286046997.6,N
1681814395.2,286046996.9,N
1681814415.1,286046998.6,N
1681814416.0,286046998.6,N
1681814435.8,286047000.4,N
1681814455.7,286047001.9,N
1681814475.5,286046999.8,N
1681814495.3,286047001.9,N
1681814515.2,286047003.9,N
1681814535.0,286047002.9,N
1681814535.9,286047002.9,N
1681814555.7,286047004.0,N
1681814575.6,286047002.0,N
1681814595.4,286047001.5,N
1681814615.3,286047001.3,N
1681814635.1,286047002.0,N
1681814636.0,286047002.0,N
1681814655.8,286047002.2,N
1681814675.7,286047002.7,N
1681814695.5,286047002.5,N
1681814715.3,286047001.9,N
1681814735.2,286047002.2,N
1681814755.0,286047000.4,N
1681814755.9,286047000.4,N
1681814775.8,286047000.1,N
1681814795.6,286047000.7,N
1681814815.4,286047000.8,N
1681814835.3,286046999.2,N
1681814855.1,286046998.2,N
1681814875.8,286046998.2,N
1681814925.7,286047004.0,E
1681814935.6,286047000.4,N
1681814955.5,286047001.2,P
1681814975.3,286047000.1,N
1681814995.2,286047002.3,Y
1681815015.9,286046999.7,P
1681815035.7,286047002.7,P
1681815055.6,286047002.6,N
1681815075.4,286047002.6,N
1681815095.2,286046999.7,N
1681815115.1,286047002.6,N
1681815116.0,286047002.6,N
1681815135.8,286047001.0,N
1681815155.7,286046998.9,N
1681815175.5,286046998.8,N
1681815195.3,286046999.1,N
1681815215.2,286046998.8,N
1681815235.9,286046996.9,N
1681815255.7,286046996.6,N
1681815275.6,286046997.4,N
1681815295.4,286046997.0,N
1681815315.3,286046999.0,N
1681815335.1,286046996.6,N
1681815336.0,286046996.6,N
1681815355.8,286046997.3,N
1681815375.7,286046997.3,N
1681815395.5,286046996.7,N
1681815415.3,286046997.5,N
1681815435.2,286046997.7,N
1681815455.0,286046995.2,N
1681815455.9,286046995.2,N
1681815475.8,286046998.0,N
1681815495.6,286046997.9,N
1681815515.4,286046995.7,N
1681815535.3,286046995.0,N
1681815555.1,286046999.5,N
1681815575.8,286046998.3,N
1681815595.7,286046998.9,N
